Weather Roundup
Issued by NWS

Home | Current Version | Previous Version | Graphics & Text | Print | Product List | Glossary Off
Versions: 1 2 3 4 5 6 7 8 9 10 11 12 13 14 15 16 17 18 19 20 21 22 23 24 25 26 27 28 29 30 31 32 33 34 35 36 37 38 39 40 41 42 43 44 45 46 47 48 49 50

000
NZUS93 KARX 232210
HRRWXR

CURRENT HOURLY OBSERVATIONS ACROSS
MUCH OF THE UPPER MISSISSIPPI VALLEY
NATIONAL WEATHER SERVICE LA CROSSE WI
500 PM CDT TUE SEP 23 2014


...SOUTHEAST MINNESOTA...


CITY           SKY/WX    TMP DP  RH WIND       PRES   REMARKS
ROCHESTER      MOSUNNY   69  49  48 S10       30.19F
ROCHESTER/MAYO FAIR      70  45  40 SE12G17   30.19S
WINONA         MOSUNNY   73  54  49 CALM      30.20R
AUSTIN         PTSUNNY   72  50  46 SE10      30.17F
ALBERT LEA     CLOUDY    70  48  46 S13       30.16F
DODGE CENTER   MOSUNNY   70  52  52 S14       30.18S
PRESTON        MOSUNNY   69  54  58 S10       30.20F
OWATONNA       PTSUNNY   72  48  43 SE8       30.16S
FARIBAULT      PTSUNNY   73  43  33 SE10      30.15F
$$

...ELSEWHERE IN MINNESOTA...


CITY           SKY/WX    TMP DP  RH WIND       PRES   REMARKS
MINNEAPOLIS    PTSUNNY   73  50  44 SE10      30.14F
INTNL FALLS    SUNNY     73  51  46 VRB7      30.07F
DULUTH         SUNNY     71  50  47 S9        30.16S
RED WING       MOSUNNY   73  48  40 S7G16     30.16S
REDWOOD FALLS  CLOUDY    65  55  70 S8        30.10S
MANKATO        PTSUNNY   72  48  43 S10G18    30.13S
WORTHINGTON    CLOUDY    61  52  72 SE15G24   30.11F
FAIRMONT       CLOUDY    66  50  55 S15       30.14R
$$

...SOUTHWEST WISCONSIN...


CITY           SKY/WX    TMP DP  RH WIND       PRES   REMARKS
LA CROSSE      MOSUNNY   75  50  41 S14       30.20F
PRAIRIE DU CHI SUNNY     73  44  35 SE5       30.22S
BOSCOBEL       SUNNY     75  48  38 VRB6      30.23F
LONE ROCK      MOSUNNY   77  48  35 S8        30.24F
PLATTEVILLE    SUNNY     72  47  41 S10       30.25F
FORT MC COY    MOSUNNY   70  49  47 S6        30.24S
CAMP DOUGLAS   MOSUNNY   70  54  56 SE5       30.24S
VIROQUA        FAIR      72  47  42 S8        30.24S
WIS DELLS      SUNNY     71  46  41 SW7       30.25S
$$

...ELSEWHERE IN WISCONSIN...


CITY           SKY/WX    TMP DP  RH WIND       PRES   REMARKS
MILWAUKEE      MOSUNNY   69  51  52 SE10      30.27S
MADISON        MOSUNNY   72  47  40 S9        30.25F
GREEN BAY      SUNNY     73  54  51 S7        30.24F
EAU CLAIRE     MOSUNNY   71  51  49 S10       30.19F
BLACK RVR FLS  FAIR      70  47  44 S6        30.22S
MEDFORD        SUNNY     69  52  54 S6        30.23F
WAUSAU         SUNNY     72  51  47 S5        30.23S
WIS RAPIDS     SUNNY     72  49  44 SW7       30.25S
MARSHFIELD     SUNNY     72  50  45 S7        30.23S
RICE LAKE      MOSUNNY   71  48  44 SE12      30.20S
$$

...NORTHEAST IOWA...


CITY           SKY/WX    TMP DP  RH WIND       PRES   REMARKS
WATERLOO       CLOUDY    70  47  43 S12       30.19F
DUBUQUE        MOSUNNY   71  47  42 S10       30.25S
DECORAH        MOSUNNY   72  48  43 S7G16     30.21S
MASON CITY     CLOUDY    69  49  48 S12       30.18F
CHARLES CITY   CLOUDY    72  48  43 S12G18    30.20S
OELWEIN        PTSUNNY   72  48  43 S12       30.22S
$$

...ELSEWHERE IN IOWA...


CITY           SKY/WX    TMP DP  RH WIND       PRES   REMARKS
DES MOINES     CLOUDY    71  53  52 S10       30.17F
IOWA CITY      PTSUNNY   70  50  49 S8        30.23F
FORT DODGE     CLOUDY    64  54  68 SE7       30.16F
MARSHALLTOWN   CLOUDY    70  49  47 SE9       30.18F
CEDAR RAPIDS   PTSUNNY   70  49  47 S9        30.22S
$$

...NORTHERN ILLINOIS...


CITY           SKY/WX    TMP DP  RH WIND       PRES   REMARKS
CHICAGO-OHARE  MOSUNNY   72  46  39 CALM      30.27F
DUPAGE         SUNNY     74  48  39 SW3       30.27F
CHICAGO-MIDWAY MOSUNNY   73  50  44 E10       30.27F
MOLINE         SUNNY     74  46  36 SE6       30.23F
ROCKFORD       MOSUNNY   73  48  41 S6        30.27F
STERLING       SUNNY     73  46  38 S6        30.25S
PEORIA         SUNNY     75  46  35 SE5       30.25F
$$

NOTE: "FAIR" INDICATES FEW OR NO CLOUDS BELOW 12,000 FEET WITH NO
SIGNIFICANT WEATHER AND/OR OBSTRUCTIONS TO VISIBILITY. WIND
SPEEDS ARE IN MILES-PER-HOUR.



USA.gov is the U.S. government's official web portal to all federal, state and local government web resources and services.